Wind_Speed
23 22 22 21 20 19 19 18 19 20 20 19 18 18 18 18 18 18 18 17 17 18 18 18 19 19 19 19 19 19 19 20 20 20 21 21 20 21 21 22 23 23 23 24
25 24 23 23 22 21 21 21 21 21 21 20 20 20 20 20 20 20 19 19 18 19 19 20 20 20 20 20 20 21 21 22 22 22 22 22 22 23 23 24 25 25 25 26
24 24 24 24 23 22 22 22 22 22 22 22 22 22 22 21 21 21 22 20 20 20 21 22 22 21 21 21 22 22 23 24 24 24 24 24 25 25 25 26 27 28 28 28
26 26 27 24 24 24 24 24 24 24 24 23 23 23 23 23 23 23 22 21 21 22 23 23 23 23 23 23 23 24 24 25 26 25 25 26 26 27 27 28 28 28 29 29
27 27 27 25 25 25 25 26 25 25 25 24 24 24 24 24 24 24 24 23 23 24 24 24 24 24 25 25 25 25 26 27 26 26 27 28 28 28 29 29 30 30 31 30
28 27 27 27 26 26 26 26 26 26 26 26 25 24 25 24 24 25 25 25 25 25 26 26 26 26 26 26 27 27 28 28 28 28 28 28 29 29 30 30 31 31 32 31
28 28 28 27 27 26 26 26 26 26 26 26 25 25 25 25 25 26 26 27 26 27 27 27 27 27 28 28 29 29 29 30 29 29 29 30 31 32 32 32 32 32 32 31
29 28 27 27 26 27 26 25 25 25 25 25 25 25 25 26 26 26 27 27 27 27 27 28 28 28 29 29 30 30 31 31 30 30 30 31 32 33 34 34 34 33 33 32
29 29 28 28 27 27 26 25 25 25 24 25 25 25 26 27 27 27 27 27 26 27 28 28 29 29 29 30 31 31 32 32 32 31 30 32 33 34 34 34 34 34 34 33
30 30 29 29 28 26 26 25 24 25 25 25 25 26 27 27 27 27 27 26 27 27 28 28 29 29 30 30 30 31 31 31 30 30 30 32 33 34 34 34 33 33 33 33
29 29 29 28 28 27 27 26 25 25 25 26 26 26 26 26 26 26 26 26 26 27 28 28 29 29 29 29 30 30 31 30 30 30 31 32 33 34 34 33 32 32 31 32
29 29 29 29 29 28 27 26 26 26 26 25 26 26 26 26 26 26 26 26 27 27 27 28 28 28 28 29 29 29 29 30 30 31 31 31 32 32 32 32 31 31 32 32
29 29 29 29 29 29 28 26 25 25 25 26 26 26 26 26 26 26 25 26 26 27 27 27 27 27 28 29 30 30 30 30 30 30 30 31 31 31 30 30 30 31 32 33
29 28 29 29 29 28 27 27 26 26 26 26 26 26 25 25 25 25 25 26 26 26 26 26 27 27 28 29 29 29 30 30 30 30 29 30 30 30 30 30 31 31 32 32
27 27 27 27 27 27 27 27 26 26 25 25 25 25 25 25 25 25 25 25 25 25 26 26 27 27 28 28 28 29 29 29 29 30 30 30 30 30 30 30 30 30 30 31
26 26 26 25 25 26 26 25 25 25 25 25 25 25 25 25 24 24 24 25 24 25 25 26 26 27 27 28 28 28 28 28 29 29 30 29 29 29 30 31 30 30 30 30
25 25 24 24 24 24 24 23 23 23 24 24 24 24 24 24 23 24 24 24 24 24 25 25 25 25 26 26 27 27 27 28 28 28 28 28 29 29 29 30 29 29 29 29
24 24 23 23 23 22 22 22 23 23 23 22 23 24 23 22 23 23 23 23 23 23 23 24 24 25 25 25 26 26 27 27 27 27 28 28 28 29 29 29 28 28 28 28
24 23 23 23 22 22 22 22 22 22 22 22 22 22 22 22 21 21 22 22 22 22 22 23 23 24 25 25 25 26 26 26 27 27 27 27 28 28 27 27 27 27 27 27
23 23 22 22 21 21 21 21 21 21 21 21 21 21 21 20 21 21 21 21 22 22 23 23 24 24 24 25 24 24 25 25 25 26 26 26 27 27 27 27 27 27 27 27
22 22 21 20 19 19 20 20 20 21 21 21 20 20 20 21 21 21 21 21 22 22 23 23 23 23 23 23 23 24 24 24 25 26 26 26 26 26 25 25 26 26 26 26
22 21 20 19 19 19 18 18 19 19 19 20 20 21 21 21 21 21 21 22 22 22 23 23 23 23 23 23 23 23 24 25 25 25 25 25 25 25 25 25 25 25 26 26
20 20 19 18 18 18 18 18 18 18 19 20 20 20 21 21 21 22 22 22 23 23 23 23 22 22 22 23 23 24 25 25 24 24 24 24 24 24 24 24 25 24 25 24
18 19 19 19 18 18 18 19 19 18 19 19 19 20 21 22 22 22 22 23 23 23 23 22 22 23 23 23 23 24 24 24 24 24 24 24 23 23 23 23 23 23 23 24
18 18 19 19 19 19 20 19 19 18 19 19 19 20 20 21 22 22 22 23 23 23 22 22 22 22 23 23 23 23 23 23 24 24 23 23 23 22 21 21 21 21 22 23
18 17 18 18 19 19 20 20 20 20 20 21 20 20 20 21 22 23 24 24 23 23 22 22 22 22 22 23 23 23 23 23 23 22 22 22 22 21 21 21 21 22 22 22
17 18 18 18 18 19 20 20 20 21 21 20 20 20 21 22 23 23 22 22 22 22 22 21 21 22 22 23 23 23 23 23 23 22 22 22 22 21 21 21 22 22 22 23
Wind_Direction
253 256 259 263 265 266 265 266 270 275 278 280 280 282 285 287 288 289 288 290 293 295 297 299 299 298 298 299 300 301 302 303 304 304 304 304 304 304 303 303 302 302 301 299
256 259 261 260 264 266 267 270 273 275 277 278 278 281 284 286 287 288 285 286 289 292 294 295 294 294 294 295 296 297 298 300 300 300 301 302 303 302 302 302 302 301 300 299
256 259 261 263 265 267 269 270 271 274 276 277 279 280 283 284 285 288 285 281 285 287 289 290 290 289 290 290 291 293 295 295 296 297 298 300 301 301 302 301 302 302 301 299
257 259 260 264 264 266 268 268 270 271 275 276 278 280 281 282 282 285 285 283 281 282 285 287 287 287 287 287 289 291 292 294 294 294 297 298 298 301 302 302 303 302 302 300
257 261 264 264 264 266 269 271 272 273 275 277 279 281 281 280 280 280 281 282 281 282 284 285 285 286 285 285 288 290 291 293 293 291 294 295 296 298 301 302 301 301 301 301
259 261 263 265 266 268 270 272 272 272 274 276 279 280 280 281 281 281 282 283 282 281 283 282 282 284 285 285 287 288 290 290 290 290 292 294 295 297 299 300 301 301 301 300
261 263 265 265 266 267 268 271 271 273 275 276 276 278 279 280 281 280 280 281 280 281 281 281 282 283 283 285 287 288 289 290 291 292 294 294 295 297 298 299 299 300 299 299
260 261 264 264 264 263 266 269 270 271 273 276 276 277 278 279 280 281 281 281 281 281 281 282 282 282 283 285 288 288 289 289 292 293 294 295 295 297 298 298 299 298 298 298
259 261 264 264 264 263 262 263 267 268 271 275 276 277 278 280 282 282 281 282 283 282 282 282 283 283 285 287 288 289 291 293 293 291 293 295 296 297 298 298 298 298 298 298
259 261 262 265 265 264 262 263 263 265 268 272 275 277 277 279 281 282 282 283 284 284 285 285 285 286 287 288 289 290 291 293 294 294 294 296 297 298 299 299 298 298 299 298
260 261 261 263 263 264 264 264 264 266 268 272 275 276 277 280 282 284 285 286 286 286 287 287 287 287 288 291 292 292 292 292 294 295 295 296 297 299 299 299 299 299 300 300
259 261 261 262 264 265 265 266 267 267 269 272 274 276 278 280 283 284 286 288 288 288 288 287 287 288 289 292 293 293 293 294 295 295 295 296 297 299 299 299 300 300 300 300
260 261 263 264 265 267 267 266 267 268 269 271 273 275 277 278 281 284 286 288 288 289 289 289 290 290 291 293 294 295 295 295 295 295 296 298 300 300 301 301 301 303 303 303
261 262 264 265 265 265 265 264 266 267 269 271 273 275 275 277 281 283 285 287 288 289 291 292 292 292 293 294 295 295 295 296 297 297 297 298 300 301 301 302 303 303 305 306
259 261 263 263 263 263 263 263 265 266 269 271 273 273 273 275 279 282 284 287 287 289 291 292 292 293 294 295 296 296 295 296 297 298 298 298 300 301 302 304 305 304 306 307
257 260 262 262 262 262 262 264 265 267 269 270 270 272 274 276 278 280 282 284 285 288 290 292 294 295 295 296 297 298 298 299 299 299 299 299 300 303 305 305 306 306 307 308
255 257 259 260 260 263 263 264 266 268 268 268 268 271 274 275 277 279 281 283 285 288 290 293 296 297 297 297 297 298 299 300 300 300 301 303 305 307 308 307 307 307 308 308
252 253 255 256 258 261 263 265 266 266 266 267 269 271 273 275 277 278 282 285 287 290 293 295 297 299 300 300 299 299 300 301 303 303 304 306 306 307 310 310 310 309 309 310
250 249 250 252 256 259 262 264 265 266 267 268 271 272 273 274 276 280 285 289 290 293 294 296 298 300 301 303 303 301 301 302 303 305 306 307 308 308 310 311 312 312 313 314
250 248 248 252 255 257 260 263 265 266 267 269 270 272 272 274 278 281 285 290 293 294 295 297 299 300 301 302 304 303 304 305 305 307 307 308 309 310 310 311 311 313 315 316
247 248 248 250 253 256 259 263 265 267 267 268 271 273 276 277 279 283 287 292 295 296 298 299 301 302 302 303 304 305 306 307 308 310 309 309 310 311 312 312 313 314 315 317
244 246 248 250 252 257 260 264 268 269 268 269 271 272 274 275 278 283 287 291 295 297 299 301 302 303 303 303 303 305 306 307 308 309 310 309 310 311 312 314 314 314 315 317
242 243 245 247 250 254 260 264 267 269 270 271 271 272 273 276 279 282 284 289 293 295 298 300 302 303 303 303 304 306 307 308 308 309 310 310 309 310 311 312 315 317 318 318
243 244 245 246 248 253 258 262 265 268 269 270 272 276 278 280 283 284 286 289 292 294 296 298 300 301 302 303 304 306 308 309 308 308 309 310 309 309 309 311 315 318 320 320
244 245 246 246 248 253 258 261 263 268 271 272 274 278 282 285 287 288 288 289 291 292 293 295 297 298 300 302 304 306 308 309 308 308 310 311 310 310 311 312 315 319 322 322
245 247 248 248 250 254 258 262 267 271 274 276 277 281 284 287 287 288 289 290 291 291 293 293 294 296 298 301 303 305 307 308 307 309 311 312 313 311 311 312 315 318 320 321
248 249 249 251 255 258 262 266 269 272 274 279 281 282 284 287 288 288 289 290 292 292 291 291 294 296 299 300 302 303 305 307 308 309 309 310 311 311 312 313 314 316 318 319
Height
5891 5892 5892 5893 5893 5894 5894 5895 5895 5894 5893 5893 5891 5890 5889 5888 5886 5885 5883 5882 5881 5879 5877 5876 5874 5872 5870 5868 5866 5864 5862 5860 5857 5855 5853 5851 5848 5846 5843 5840 5838 5835 5832 5830
5884 5885 5886 5886 5888 5888 5889 5889 5889 5888 5888 5887 5886 5885 5884 5882 5881 5879 5878 5877 5875 5874 5872 5871 5869 5867 5865 5863 5861 5859 5857 5855 5852 5850 5848 5845 5842 5840 5837 5834 5831 5829 5826 5823
5879 5879 5879 5880 5882 5882 5882 5882 5883 5882 5882 5880 5880 5879 5878 5876 5875 5874 5872 5870 5870 5868 5867 5865 5864 5862 5860 5858 5856 5854 5851 5849 5846 5844 5841 5839 5836 5833 5830 5828 5825 5822 5819 5816
5872 5873 5873 5877 5875 5876 5876 5876 5876 5875 5874 5874 5873 5872 5871 5870 5869 5867 5866 5864 5863 5862 5861 5859 5857 5855 5854 5852 5850 5847 5845 5843 5840 5837 5835 5832 5829 5826 5824 5821 5817 5814 5811 5808
5865 5865 5866 5868 5867 5868 5868 5868 5868 5868 5867 5867 5866 5866 5864 5863 5862 5861 5859 5858 5856 5855 5854 5852 5851 5849 5847 5845 5843 5841 5838 5836 5833 5830 5828 5825 5823 5820 5816 5813 5810 5807 5803 5800
5857 5858 5859 5861 5860 5860 5862 5860 5861 5860 5860 5860 5860 5859 5858 5856 5855 5854 5852 5851 5849 5848 5846 5845 5843 5841 5839 5837 5836 5833 5831 5828 5825 5823 5820 5818 5815 5812 5809 5805 5802 5798 5795 5792
5849 5850 5851 5852 5852 5853 5854 5854 5853 5852 5852 5852 5851 5851 5850 5849 5847 5846 5845 5844 5842 5841 5839 5837 5835 5834 5832 5830 5827 5825 5823 5820 5817 5815 5812 5810 5807 5804 5801 5797 5794 5790 5786 5783
5841 5842 5845 5843 5844 5845 5845 5845 5844 5844 5844 5844 5843 5843 5842 5841 5840 5838 5837 5836 5834 5833 5831 5829 5827 5826 5824 5821 5819 5817 5815 5812 5809 5807 5804 5801 5798 5795 5792 5788 5785 5781 5777 5774
5834 5836 5835 5835 5835 5835 5836 5837 5836 5836 5836 5836 5835 5835 5834 5833 5832 5830 5829 5828 5826 5825 5823 5822 5820 5818 5816 5813 5811 5809 5806 5803 5801 5798 5795 5792 5789 5786 5783 5779 5775 5772 5768 5764
5825 5826 5826 5826 5826 5827 5828 5828 5828 5828 5828 5828 5827 5827 5826 5825 5824 5822 5821 5820 5818 5817 5815 5814 5812 5809 5807 5805 5802 5800 5797 5795 5792 5789 5786 5783 5780 5777 5773 5769 5766 5762 5758 5755
5815 5817 5817 5818 5818 5819 5819 5819 5819 5820 5820 5820 5819 5819 5818 5817 5816 5815 5814 5812 5810 5809 5807 5805 5803 5801 5799 5796 5794 5791 5789 5786 5783 5780 5777 5774 5771 5768 5764 5760 5757 5753 5750 5746
5807 5808 5809 5809 5809 5809 5810 5811 5811 5812 5812 5812 5811 5811 5810 5809 5808 5807 5806 5804 5803 5801 5799 5797 5795 5792 5790 5788 5786 5783 5780 5778 5774 5771 5769 5766 5763 5759 5755 5752 5748 5745 5741 5737
5798 5799 5800 5800 5800 5801 5801 5802 5803 5803 5803 5803 5803 5803 5802 5802 5800 5800 5798 5796 5795 5793 5791 5789 5786 5784 5782 5780 5777 5774 5772 5769 5766 5763 5760 5757 5753 5750 5747 5743 5740 5736 5732 5728
5790 5791 5791 5791 5791 5792 5793 5794 5794 5795 5795 5795 5795 5795 5794 5793 5792 5792 5790 5789 5787 5785 5783 5781 5779 5776 5774 5771 5769 5766 5763 5760 5758 5755 5751 5748 5745 5741 5738 5734 5731 5727 5723 5720
5782 5782 5783 5783 5784 5784 5785 5786 5786 5787 5787 5787 5787 5787 5786 5786 5785 5784 5783 5781 5780 5778 5776 5773 5771 5768 5766 5763 5761 5758 5755 5752 5750 5746 5743 5740 5737 5733 5730 5726 5722 5718 5714 5711
5774 5775 5775 5776 5777 5777 5778 5778 5779 5779 5779 5779 5779 5779 5778 5778 5777 5776 5775 5774 5772 5770 5768 5766 5763 5761 5758 5755 5752 5750 5747 5744 5741 5738 5735 5732 5728 5725 5722 5718 5714 5710 5706 5702
5767 5767 5768 5769 5770 5770 5770 5771 5772 5772 5772 5772 5772 5771 5771 5770 5770 5769 5768 5766 5765 5763 5761 5758 5756 5753 5750 5747 5744 5742 5739 5736 5733 5730 5727 5724 5721 5717 5714 5710 5706 5702 5698 5694
5759 5760 5761 5762 5763 5763 5764 5764 5765 5765 5764 5765 5764 5764 5763 5763 5763 5762 5761 5759 5758 5756 5753 5751 5748 5746 5743 5740 5737 5734 5731 5728 5725 5722 5719 5716 5713 5710 5706 5702 5698 5695 5691 5686
5752 5753 5754 5755 5756 5756 5757 5758 5758 5758 5758 5758 5758 5757 5757 5756 5756 5755 5754 5752 5750 5749 5747 5744 5741 5739 5736 5733 5730 5727 5724 5721 5718 5715 5712 5709 5705 5702 5699 5695 5691 5688 5683 5680
5744 5746 5747 5748 5749 5750 5751 5751 5751 5752 5752 5751 5751 5751 5750 5750 5749 5748 5747 5746 5744 5742 5740 5737 5734 5732 5729 5726 5723 5720 5717 5714 5711 5708 5705 5702 5699 5696 5692 5689 5685 5681 5677 5673
5738 5739 5741 5742 5743 5744 5744 5745 5745 5745 5745 5745 5744 5744 5744 5743 5742 5741 5740 5739 5737 5735 5732 5730 5727 5725 5722 5719 5716 5713 5711 5708 5705 5702 5698 5695 5692 5689 5686 5682 5679 5675 5671 5667
5731 5733 5735 5736 5737 5738 5738 5739 5739 5739 5738 5738 5738 5737 5737 5736 5735 5734 5733 5732 5730 5728 5726 5723 5720 5718 5715 5712 5710 5707 5705 5702 5699 5696 5692 5689 5686 5683 5680 5677 5673 5669 5665 5661
5725 5727 5729 5730 5731 5732 5732 5733 5733 5733 5733 5732 5732 5731 5730 5729 5728 5727 5726 5725 5723 5721 5719 5716 5714 5711 5709 5706 5704 5701 5698 5696 5693 5690 5686 5683 5680 5677 5674 5671 5667 5663 5660 5656
5720 5721 5723 5724 5725 5726 5727 5727 5727 5727 5726 5726 5725 5724 5723 5722 5721 5719 5718 5717 5715 5714 5712 5710 5707 5705 5702 5700 5697 5695 5692 5689 5686 5683 5680 5677 5674 5671 5668 5665 5661 5658 5654 5651
5714 5715 5717 5718 5720 5720 5721 5721 5720 5720 5720 5719 5718 5717 5716 5714 5713 5712 5711 5709 5708 5706 5705 5703 5701 5699 5696 5694 5691 5689 5686 5683 5680 5677 5674 5671 5668 5665 5662 5659 5656 5653 5649 5646
5709 5710 5712 5713 5713 5714 5714 5714 5714 5714 5713 5712 5711 5710 5709 5708 5707 5705 5704 5702 5700 5699 5697 5695 5694 5692 5690 5688 5685 5682 5680 5677 5674 5671 5668 5665 5662 5660 5657 5654 5651 5648 5644 5641
5704 5705 5706 5707 5707 5707 5708 5708 5708 5708 5707 5705 5704 5704 5703 5702 5700 5698 5696 5695 5693 5691 5690 5688 5687 5685 5683 5681 5679 5676 5674 5671 5668 5665 5663 5660 5657 5654 5652 5649 5646 5643 5639 5636